Kosmos-875

operational
NORAD ID: 9592 Int'l Des: 1976-118 Owner: GUKOSR Country: SU
LEOCIRCULAR

Über Kosmos-875

Beschreibung wird geladen...

Live-Position

3D-Globus wird geladen...

Nächste Überflüge

Höhenverlauf

Altitude vs Time

uPlot chart will show altitude changes over time

Zweizeiliger Elementsatz

1 9592U 76118E 26061.18560401 .00000005 00000-0 13177-3 0 9995
2 9592 74.0328 315.4058 0018269 255.0494 179.4837 12.53517402252695
Epoch: 2. März 2026 • Age: 24 hours

Aktueller Status

Höhe 1450.8 km
Geschwindigkeit 7.14 km/s
Subsatellitenpunkt -33.30°S, 21.01°W
Typ other

Große Konstellationen

Loading constellations...